Regional Weather Roundup
Issued by NWS Cleveland, OH

Home | Current Version | Previous Version | Text Only | Print | Product List | Glossary Off
Versions: 1 2 3 4 5 6 7 8 9 10 11 12 13 14 15 16 17 18 19 20 21 22 23 24 25 26 27 28 29 30 31 32 33 34 35 36 37 38 39 40 41 42 43 44 45 46 47 48 49 50

000
ASUS41 KCLE 190510
RWRCLE
OHIO REGIONAL WEATHER ROUNDUP
NATIONAL WEATHER SERVICE CLEVELAND, OH
100 AM EDT THU OCT 19 2017

NOTE: "FAIR" INDICATES FEW OR NO CLOUDS BELOW 12,000 FEET WITH NO
SIGNIFICANT WEATHER AND/OR OBSTRUCTIONS TO VISIBILITY.

OHZ001>008-015>018-024>027-034-035-043-044-190600-
   NORTHWEST OHIO

CITY           SKY/WX    TMP DP  RH WIND       PRES   REMARKS
DEFIANCE       CLEAR     51  41  68 SW7       30.14S
FINDLAY        CLEAR     48  40  73 S8        30.15S
TOLEDO EXPRESS CLEAR     56  44  64 SW8       30.12F
TOLEDO EXEC    CLEAR     54  42  64 SW9       30.14S
LIMA           CLEAR     52  43  71 S8        30.16F
$$

OHZ009>014-019>023-028>033-038-089-190600-
   NORTHEAST OHIO

CITY           SKY/WX    TMP DP  RH WIND       PRES   REMARKS
CLE-HOPKINS    CLEAR     57  40  52 SW10      30.18R
CLE-LAKEFRONT  CLEAR     56  40  55 S7        30.15S
CUY CO. ARPT   NOT AVBL
LORAIN-ELYRIA  CLEAR     49  36  61 S6        30.17R
ASHTABULA      CLEAR     53  41  63 S6        30.17F
AKRON-CANTON   CLEAR     50  38  63 S6        30.18F
WOOSTER        CLEAR     50  40  68 SW5       30.18S
MANSFIELD      CLEAR     52  41  66 SW8       30.18R
YOUNGSTOWN     PTCLDY    53  39  59 S6        30.18F
$$

OHZ042-051>053-060>062-070>072-077>081-190600-
  SOUTHWEST OHIO

CITY           SKY/WX    TMP DP  RH WIND       PRES   REMARKS
CINC-COVINGTON CLEAR     52  46  80 S7        30.19S
CINC-LUNKEN    CLEAR     45  45 100 CALM      30.22R
HAMILTON       CLEAR     43  42  97 CALM      30.21R
DAYTON         CLEAR     53  45  74 S9        30.19S
WRIGHT-PAT AFB CLEAR     50  43  77 S5        30.19S
DAYTON GENERAL CLEAR     52  44  74 S3        30.19S
WILMINGTON     CLEAR     50  44  80 SW6       30.20S
$$

OHZ036-037-039>041-045>050-054>059-063>069-073>076-082>088-190600-
  CENTRAL AND SOUTHEAST OHIO

CITY           SKY/WX    TMP DP  RH WIND       PRES   REMARKS
COLUMBUS       CLEAR     51  43  74 CALM      30.20R
OSU AIRPORT    CLEAR     53  44  71 S5        30.19S
BOLTON FIELD   CLEAR     50  43  76 S5        30.20S
RICKENBACK AFB CLEAR     47  42  83 SW3       30.20S
NEWARK         CLEAR     43  40  89 CALM      30.20S
MARION         CLEAR     51  41  68 SW7       30.19R
LANCASTER      CLEAR     43  41  93 CALM      30.20F
ZANESVILLE     CLEAR     44  40  85 CALM      30.20F
NEW PHILLY     NOT AVBL
$$




USA.gov is the U.S. government's official web portal to all federal, state and local government web resources and services.